Content
SEND FEEDBACK

Daily
Averages
Monthly
Summary
United States of America

CANYON LAKE, TEXAS


Home > North America > United States > Texas
Elevation: 974 feet     Latitude: 29 52N     Longitude: 098 12W

WEATHER
 
SELECT A DAY
Number of Records: 179,992;   Date Range: 10/8/98 - 9/20/14
 
SHARE

PRINT THIS DATA

[ ← Previous Day ]
WEATHER ALMANAC - JANUARY 23, 2013
[ Next Day → ]
[ °C ]   °F
Weather ElementAverageHighLow
Temperature52.9 °F75.9 °F (3:51 pm)42.8 °F (4:09 am)
Dewpoint48.4 °F57.9 °F (10:51 pm)42.1 °F (2:51 am)
Humidity87 %100 % (3:06 am)46 % (3:51 pm)
Barometer30.27 in30.34 in (10:17 am)30.19 in (7:51 pm)
Wind Speed4 mph16.1 mph (12:13 pm)
Wind Gust21.9 mph (12:13 pm)
Weather ElementAverage
Visibility4.7 mi
Wind DirectionSE (137.1 °)

Weather ElementTotal
Precipitation---
Heating Degree Days5.7 (Base 65)
Growing Degree Days9.4 (Base 50)
Averaged from 45 records on January 23, 2013
WEATHER CONDITIONS BREAKOUT
WIND DIRECTION BREAKOUT
WEATHER BY HOUR - JANUARY 23, 2013
[ °C ]   °F
Local TimeTemperatureDewpointHumidityBarometerVisibilityWind DirectionWind SpeedGust SpeedPrecipitationEventsConditions
1:51 AM46.9 °F44.1 °F90 %30.26 in10.0 miNNW (330°)4.6 mphClear
2:51 AM44.1 °F42.1 °F93 %30.26 in5.0 miNorth (350°)3.5 mphClear
2:58 AM44.6 °F42.8 °F93 %30.26 in1.8 miNorth (360°)3.5 mphClear
3:06 AM44.6 °F44.6 °F100 %30.26 in3.0 miNorth (350°)3.5 mphClear
3:37 AM46.4 °F44.6 °F93 %30.26 in1.8 miNorth (350°)3.5 mphClear
3:39 AM44.6 °F44.6 °F100 %30.26 in1.0 miCalmClear
3:46 AM46.4 °F44.6 °F93 %30.26 in0.5 miCalmFogFog
3:49 AM46.4 °F44.6 °F93 %30.26 in0.2 miNorth (360°)3.5 mphFogFog
3:51 AM46.0 °F45.0 °F96 %30.25 in0.2 miNorth (360°)3.5 mphFogFog
4:01 AM44.6 °F44.6 °F100 %30.25 in0.5 miNorth (360°)3.5 mphFogFog
4:09 AM42.8 °F42.8 °F100 %30.25 in0.2 miNorth (10°)3.5 mphFogFog
4:45 AM44.6 °F42.8 °F93 %30.26 in1.0 miCalmMist
4:46 AM44.6 °F42.8 °F93 %30.26 in1.5 miCalmPartly Cloudy
4:51 AM44.1 °F43.0 °F96 %30.25 in1.5 miCalmPartly Cloudy
4:54 AM42.8 °F42.8 °F100 %30.26 in1.0 miCalmMist
4:56 AM42.8 °F42.8 °F100 %30.26 in0.5 miCalmFogFog
5:15 AM44.6 °F42.8 °F93 %30.26 in1.5 miCalmPartly Cloudy
5:22 AM42.8 °F42.8 °F100 %30.26 in1.8 miESE (120°)3.5 mphPartly Cloudy
5:24 AM42.8 °F42.8 °F100 %30.26 in1.0 miESE (110°)3.5 mphMist
5:27 AM42.8 °F42.8 °F100 %30.26 in0.2 miESE (120°)3.5 mphFogFog
5:51 AM43.0 °F42.1 °F97 %30.26 in0.2 miCalmFogFog
6:51 AM46.9 °F46.0 °F97 %30.28 in0.2 miCalmFogFog
7:51 AM46.9 °F46.0 °F97 %30.29 in0.2 miCalmFogFog
8:51 AM50.0 °F48.9 °F96 %30.31 in0.2 miCalmFogFog
9:05 AM51.8 °F50.0 °F94 %30.31 in1.0 miCalmOvercast
9:08 AM51.8 °F50.0 °F94 %30.31 in1.5 miCalmOvercast
9:10 AM51.8 °F51.8 °F100 %30.31 in2.0 miCalmOvercast
9:21 AM51.8 °F51.8 °F100 %30.32 in4.0 miCalmOvercast
9:51 AM54.0 °F53.1 °F97 %30.33 in10.0 miCalmOvercast
10:17 AM57.2 °F53.6 °F88 %30.34 in10.0 miCalmMostly Cloudy
10:29 AM60.8 °F53.6 °F77 %30.34 in10.0 miSouth (180°)4.6 mphScattered Clouds
10:51 AM63.0 °F55.0 °F75 %30.34 in10.0 miSSW (210°)5.8 mphMostly Cloudy
11:16 AM64.4 °F55.4 °F73 %30.34 in10.0 miSSW (210°)10.4 mphScattered Clouds
11:51 AM66.0 °F55.9 °F70 %30.31 in10.0 miSW (220°)9.2 mphMostly Cloudy
12:13 PM71.6 °F57.2 °F60 %30.30 in10.0 miSouth (190°)16.1 mph21.9 mphScattered Clouds
12:51 PM71.1 °F55.0 °F57 %30.27 in10.0 miSSW (210°)15.0 mphScattered Clouds
3:51 PM75.9 °F54.0 °F46 %30.20 in10.0 miSSW (200°)16.1 mph19.6 mphPartly Cloudy
4:51 PM75.0 °F54.0 °F48 %30.20 in10.0 miSW (220°)9.2 mphClear
5:51 PM70.0 °F53.1 °F55 %30.20 in10.0 miSW (220°)5.8 mphClear
6:51 PM64.0 °F52.0 °F65 %30.20 in10.0 miSouth (190°)4.6 mphClear
7:51 PM62.1 °F52.0 °F70 %30.19 in10.0 miSouth (180°)4.6 mphClear
8:51 PM57.0 °F50.0 °F77 %30.20 in10.0 miSouth (170°)5.8 mphClear
9:51 PM62.1 °F55.9 °F80 %30.22 in10.0 miSouth (190°)10.4 mphClear
10:51 PM62.1 °F57.9 °F86 %30.22 in10.0 miSouth (190°)10.4 mphClear
11:51 PM59.0 °F55.9 °F90 %30.21 in10.0 miSSW (210°)6.9 mphClear
Hourly data recorded from KBAZ, located miles away from Canyon Lake, Texas







STORIES FROM OUR PARTNERS